Wind_Speed
35 35 36 36 37 37 38 39 40 40 40 40 39 39 39 40 41 42 41 41 40 41 41 40 39 39 38 38 37 36 36 35 35 34 33 33 32 32 31 31 31 31 30
36 36 36 37 37 37 38 38 39 40 40 41 41 40 39 40 41 42 42 43 42 42 42 41 40 40 40 39 39 39 38 38 37 36 35 35 35 34 33 33 33 33 33
38 37 37 37 38 38 38 39 39 40 41 41 43 42 41 41 42 42 43 43 43 43 42 42 42 42 41 40 40 41 41 40 39 39 38 37 37 36 35 33 34 35 35
39 38 38 38 38 39 39 40 40 41 41 42 44 43 42 42 42 43 44 43 43 43 42 42 43 42 42 42 42 42 41 42 41 40 39 38 38 37 36 36 35 35 36
39 39 39 39 39 39 39 40 41 41 42 42 44 45 44 43 43 44 45 45 44 43 43 43 42 43 43 43 43 43 42 42 42 40 40 39 39 38 37 37 37 37 38
38 39 38 38 39 39 39 39 40 42 42 42 43 44 44 43 43 44 45 45 45 44 42 43 43 43 44 44 44 43 43 42 42 42 42 41 40 40 39 38 38 37 38
37 37 38 38 38 38 38 39 40 41 42 43 43 44 44 42 41 42 44 45 45 44 43 43 42 42 44 45 45 45 44 43 43 43 42 41 41 41 41 40 40 39 39
36 36 36 36 36 37 38 38 39 40 42 43 43 45 44 42 41 41 43 43 44 43 43 43 42 41 43 44 45 45 45 44 44 44 43 42 42 42 43 43 42 42 42
36 35 35 36 36 36 37 38 38 40 41 43 44 46 44 41 40 41 43 43 43 43 44 45 44 43 43 44 45 45 45 45 44 43 43 43 43 43 43 44 44 44 44
35 35 35 36 36 36 37 37 38 39 40 41 45 45 44 42 41 41 43 43 43 43 43 45 45 43 42 42 43 45 45 45 45 44 44 44 44 44 44 44 45 46 46
35 35 35 36 36 35 35 36 37 38 39 41 43 44 44 43 42 42 42 42 42 42 42 44 44 43 43 43 44 45 45 45 45 44 44 44 44 45 45 45 46 47 47
36 35 36 36 36 36 36 36 36 36 38 41 42 43 44 44 44 44 44 45 44 43 43 44 44 43 42 43 44 45 46 46 45 44 44 45 46 46 46 46 47 48 49
36 36 36 36 36 36 36 36 36 36 38 40 42 43 44 44 44 44 44 44 44 44 45 45 45 44 44 44 45 45 46 46 46 46 45 45 46 47 47 47 48 49 49
37 37 37 36 36 36 37 37 38 39 40 41 42 43 44 45 46 45 45 45 45 45 46 46 46 46 46 46 46 47 47 47 47 47 47 46 47 48 49 49 49 49 50
38 37 37 36 36 37 38 38 39 40 40 41 42 42 44 45 46 46 47 47 45 45 46 48 48 47 47 47 47 47 47 47 48 48 48 49 49 49 50 50 50 51 52
39 38 37 37 37 37 38 38 38 39 40 40 41 41 43 44 45 46 47 48 47 46 46 47 47 47 47 48 48 48 48 48 48 49 49 50 50 51 51 52 53 53 54
40 39 39 39 38 38 38 38 38 39 39 39 39 40 41 42 43 45 46 46 45 46 45 45 46 46 46 47 47 48 49 49 49 50 51 51 52 53 54 55 55 55 56
40 39 39 39 38 38 39 40 39 39 39 39 39 40 42 42 43 43 44 44 44 44 45 45 45 46 46 47 47 47 48 49 49 50 51 52 53 55 55 56 56 56 56
40 39 39 39 39 39 39 39 39 39 39 40 40 41 42 43 42 43 43 43 44 45 45 46 46 46 47 47 48 48 49 49 50 51 52 53 53 54 55 56 56 56 56
38 38 37 37 37 38 38 39 39 39 39 40 40 41 42 43 43 42 43 44 45 45 46 46 47 47 47 47 48 49 49 50 51 52 53 54 54 55 55 55 55 56 56
36 36 35 35 35 36 36 37 37 37 38 40 40 40 42 42 42 43 44 45 46 46 47 47 48 48 48 48 49 49 50 51 52 52 53 53 53 54 55 55 55 55 55
34 34 34 33 33 34 34 35 35 36 38 39 40 40 41 41 41 42 44 44 45 46 47 47 48 49 49 50 50 51 51 52 52 52 52 52 53 54 54 54 54 53 53
32 33 34 34 33 33 33 33 34 35 36 37 38 38 39 40 40 41 42 43 44 46 46 47 48 48 49 51 51 52 52 52 52 52 52 52 53 53 54 54 54 54 53
31 32 33 33 34 33 33 32 33 34 35 35 36 37 38 38 38 39 40 42 44 45 46 46 47 48 49 50 51 51 51 51 52 52 52 52 53 53 53 53 53 54 53
29 30 32 33 33 33 33 33 33 33 33 34 34 36 36 36 37 38 39 40 42 43 44 45 46 47 48 49 49 49 49 49 50 50 50 50 50 51 51 51 52 52 52
29 30 30 31 33 34 33 33 33 33 33 33 33 33 35 35 35 36 37 38 39 40 42 43 44 45 45 46 46 47 47 47 48 48 49 49 49 49 50 50 50 50 50
Wind_Direction
255 254 253 253 253 253 252 251 250 250 249 245 243 243 243 243 241 238 238 239 239 240 240 241 241 240 240 242 243 245 245 246 249 251 252 254 257 258 259 259 260 261 262
255 254 254 253 253 253 253 252 250 251 249 245 242 243 243 243 241 239 239 239 240 240 240 241 241 239 240 241 242 244 245 246 248 251 253 254 256 258 258 260 260 260 262
255 255 254 254 254 253 253 252 250 249 249 247 243 244 244 243 241 239 239 239 240 240 239 241 241 239 240 241 242 243 245 246 249 251 252 255 256 257 258 259 260 261 262
255 255 254 255 254 254 253 252 250 249 248 246 244 243 243 242 240 239 239 238 239 239 241 241 242 241 241 241 242 243 245 246 248 250 252 254 256 256 257 259 260 262 263
256 255 255 255 254 253 253 251 250 249 248 246 244 243 242 242 240 239 238 238 238 240 242 242 242 242 242 242 243 243 244 245 248 250 251 253 255 256 258 259 261 262 263
256 255 255 255 253 252 251 250 249 248 247 246 245 243 241 242 241 239 237 237 237 239 241 242 242 242 242 243 244 245 245 246 248 250 251 253 255 257 258 260 262 263 264
255 254 254 252 251 251 250 250 249 247 247 246 244 242 240 240 241 240 238 237 237 238 239 242 242 242 242 243 244 245 246 247 249 252 253 254 256 258 259 261 263 265 264
253 253 252 250 250 249 249 249 248 247 245 245 243 240 240 241 241 240 237 236 236 237 240 241 242 243 244 244 244 243 245 247 250 252 254 256 258 260 261 262 264 266 266
253 252 250 250 250 249 249 249 249 248 247 244 242 239 239 241 241 239 237 236 236 237 240 240 241 243 244 245 244 244 245 248 250 252 254 256 258 261 263 264 265 266 267
254 252 251 249 249 249 249 249 250 250 248 245 241 236 239 241 239 238 237 238 238 241 244 242 242 243 245 246 246 246 246 248 250 253 256 257 259 261 263 264 265 267 268
255 253 251 250 250 250 249 250 249 248 247 245 241 240 241 240 238 237 237 237 239 241 243 243 243 245 247 247 247 247 248 250 252 254 256 258 260 262 264 265 266 267 268
255 255 253 252 252 251 250 249 247 246 245 242 240 241 242 240 238 238 239 240 240 241 242 242 242 245 246 247 247 248 249 251 252 254 256 258 259 262 264 265 267 268 269
254 255 254 253 252 251 248 247 245 245 244 242 242 243 243 241 240 239 239 239 241 243 242 242 242 245 246 247 248 249 250 251 253 255 257 259 260 261 263 265 267 268 269
253 253 254 253 251 250 248 248 248 246 246 247 245 244 242 241 240 240 241 241 242 243 242 242 243 245 246 247 249 250 251 252 254 256 258 260 262 263 265 266 267 268 270
251 251 252 252 251 250 248 248 247 246 247 247 245 244 244 241 240 241 242 242 243 244 244 244 245 246 246 247 249 251 252 254 255 257 259 261 263 265 266 267 268 270 271
250 250 251 251 251 252 251 249 248 247 247 246 246 246 245 243 241 241 242 242 243 243 245 244 246 247 248 249 251 253 254 255 257 258 260 262 264 265 267 268 270 271 273
251 250 251 251 251 251 250 249 250 250 249 248 248 246 246 244 242 241 242 242 243 243 245 247 248 250 251 252 254 255 257 258 258 259 261 263 265 266 268 270 270 271 273
251 250 250 251 251 250 250 251 251 252 251 250 249 248 248 246 244 244 243 243 244 244 246 246 248 250 252 253 255 256 257 259 261 262 264 265 266 267 269 270 271 272 273
252 252 252 252 251 251 250 250 250 251 252 251 251 250 249 247 246 246 245 245 245 245 246 248 250 251 252 254 256 257 259 261 263 265 266 267 268 269 270 271 271 271 272
251 252 252 252 252 252 250 250 249 250 250 251 251 249 248 248 247 247 246 247 247 247 248 249 251 253 254 256 257 259 261 263 264 266 268 268 269 269 270 271 271 272 272
249 250 251 252 252 252 251 250 250 250 250 251 250 248 248 248 248 248 247 249 248 248 249 250 252 254 256 257 259 260 262 263 265 267 268 269 269 270 270 271 272 273 273
247 248 249 250 251 252 251 250 250 250 250 250 250 249 249 250 249 249 249 250 249 249 251 252 254 256 257 259 261 262 264 265 266 268 269 269 270 271 272 272 273 273 274
247 247 247 247 248 249 250 250 249 249 248 249 250 250 251 251 250 250 250 252 252 252 253 255 256 257 259 260 263 264 265 267 268 269 269 271 272 272 273 273 273 274 274
247 246 246 246 246 247 247 248 249 249 249 250 250 249 250 250 251 252 252 253 253 254 255 256 257 259 260 261 263 264 265 266 268 270 271 271 272 273 273 273 274 274 275
247 247 246 245 245 245 245 247 249 249 250 250 251 250 250 251 252 253 252 253 253 255 256 258 259 260 261 261 262 264 265 267 269 270 271 272 272 273 273 274 274 274 275
248 247 247 246 243 244 245 245 247 248 250 251 251 250 250 251 252 253 254 254 255 256 258 260 261 261 261 262 263 264 266 268 270 271 271 271 272 273 274 274 274 275 276
Height
5720 5721 5722 5723 5725 5727 5728 5730 5732 5734 5737 5739 5741 5743 5747 5750 5754 5758 5762 5766 5769 5773 5777 5780 5783 5786 5789 5792 5795 5797 5800 5802 5804 5806 5807 5809 5810 5811 5811 5812 5813 5814 5814
5710 5711 5712 5713 5715 5717 5719 5721 5723 5725 5727 5730 5732 5734 5737 5740 5745 5749 5753 5757 5760 5764 5768 5771 5774 5777 5781 5784 5787 5789 5792 5794 5796 5799 5800 5801 5803 5804 5805 5805 5806 5806 5807
5700 5701 5702 5704 5705 5707 5709 5711 5712 5715 5717 5720 5722 5725 5728 5731 5735 5740 5744 5748 5751 5755 5759 5762 5765 5768 5771 5775 5778 5781 5784 5787 5789 5790 5792 5794 5795 5796 5797 5798 5798 5799 5800
5689 5691 5692 5693 5695 5697 5698 5700 5702 5704 5706 5709 5712 5715 5719 5722 5726 5730 5734 5738 5742 5746 5750 5753 5756 5759 5762 5766 5769 5772 5776 5778 5780 5782 5784 5785 5787 5788 5790 5791 5791 5792 5792
5679 5680 5682 5683 5684 5685 5687 5689 5691 5693 5696 5699 5701 5705 5708 5712 5716 5720 5724 5728 5733 5737 5740 5744 5747 5750 5753 5757 5760 5763 5766 5769 5772 5774 5775 5777 5778 5780 5781 5783 5783 5784 5784
5668 5669 5671 5671 5673 5674 5676 5678 5680 5683 5685 5688 5691 5694 5698 5702 5705 5709 5714 5718 5723 5727 5731 5734 5737 5741 5744 5747 5751 5754 5757 5760 5763 5765 5766 5768 5770 5771 5773 5774 5774 5775 5776
5657 5658 5660 5661 5662 5663 5665 5667 5670 5673 5675 5678 5681 5684 5688 5692 5695 5699 5704 5708 5713 5718 5722 5725 5729 5732 5735 5739 5742 5745 5748 5751 5753 5755 5757 5759 5760 5762 5763 5764 5765 5766 5767
5647 5648 5649 5650 5652 5653 5655 5657 5659 5662 5665 5668 5672 5675 5679 5682 5686 5690 5695 5699 5704 5709 5713 5716 5720 5723 5726 5729 5732 5736 5739 5741 5744 5746 5748 5750 5751 5752 5753 5755 5756 5757 5757
5637 5638 5639 5640 5642 5644 5646 5648 5650 5652 5654 5658 5662 5665 5669 5673 5677 5681 5685 5689 5695 5699 5703 5707 5710 5714 5717 5719 5723 5726 5729 5732 5734 5737 5739 5740 5742 5743 5744 5745 5745 5747 5747
5626 5628 5629 5631 5632 5633 5635 5637 5639 5642 5645 5648 5651 5656 5660 5663 5667 5672 5676 5680 5685 5690 5693 5697 5701 5704 5707 5710 5713 5717 5720 5722 5725 5727 5729 5730 5732 5733 5734 5734 5735 5735 5736
5616 5617 5619 5620 5622 5623 5625 5627 5630 5632 5635 5638 5642 5646 5650 5654 5658 5662 5666 5671 5675 5679 5683 5686 5691 5694 5697 5700 5703 5707 5710 5713 5715 5717 5718 5720 5721 5722 5723 5723 5724 5724 5724
5605 5607 5608 5610 5612 5613 5615 5617 5620 5623 5626 5629 5633 5637 5641 5644 5648 5652 5656 5661 5665 5669 5673 5677 5681 5684 5687 5691 5694 5697 5700 5702 5704 5706 5708 5709 5710 5711 5712 5712 5712 5712 5712
5594 5596 5597 5599 5601 5603 5605 5608 5610 5613 5616 5619 5623 5627 5630 5634 5638 5642 5646 5650 5654 5658 5662 5666 5670 5674 5677 5680 5683 5686 5689 5691 5693 5695 5697 5698 5699 5700 5700 5700 5700 5700 5700
5583 5585 5587 5588 5590 5593 5595 5598 5600 5603 5606 5609 5612 5616 5619 5623 5627 5631 5635 5639 5643 5647 5652 5655 5659 5663 5666 5669 5672 5675 5677 5680 5682 5683 5685 5686 5687 5688 5688 5688 5688 5687 5687
5572 5574 5576 5578 5580 5582 5584 5587 5590 5593 5596 5598 5601 5605 5608 5612 5616 5620 5624 5628 5632 5636 5640 5644 5648 5652 5655 5658 5661 5663 5666 5668 5669 5671 5672 5673 5674 5675 5675 5675 5675 5674 5673
5560 5562 5564 5567 5569 5571 5573 5576 5579 5582 5584 5587 5590 5593 5597 5600 5604 5608 5612 5616 5620 5624 5628 5632 5636 5640 5643 5646 5649 5651 5653 5655 5657 5658 5660 5660 5661 5661 5661 5661 5660 5660 5659
5549 5551 5553 5556 5558 5561 5563 5565 5567 5570 5573 5576 5579 5582 5585 5589 5593 5597 5601 5605 5608 5612 5616 5620 5624 5627 5631 5633 5636 5638 5640 5642 5644 5645 5646 5647 5647 5647 5647 5646 5645 5644 5643
5536 5539 5542 5544 5547 5549 5552 5554 5557 5559 5562 5565 5568 5571 5574 5578 5582 5585 5589 5593 5597 5601 5604 5608 5611 5615 5618 5620 5623 5625 5627 5628 5630 5631 5631 5632 5632 5631 5631 5630 5630 5628 5627
5525 5527 5530 5533 5535 5538 5540 5543 5546 5549 5551 5554 5557 5560 5563 5566 5570 5574 5578 5581 5585 5588 5592 5595 5599 5602 5605 5607 5609 5611 5613 5615 5616 5616 5616 5616 5616 5616 5615 5614 5614 5613 5611
5514 5516 5519 5521 5524 5526 5529 5532 5535 5538 5540 5543 5545 5548 5551 5555 5558 5562 5566 5569 5572 5576 5579 5583 5586 5589 5592 5594 5596 5597 5599 5601 5602 5602 5601 5601 5600 5600 5598 5597 5597 5596 5596
5504 5506 5508 5511 5513 5515 5518 5521 5524 5527 5529 5531 5534 5537 5540 5543 5546 5550 5553 5556 5559 5563 5567 5570 5573 5575 5578 5580 5581 5582 5584 5585 5586 5586 5586 5585 5584 5583 5582 5581 5581 5580 5579
5493 5496 5499 5501 5503 5505 5507 5510 5513 5516 5518 5521 5523 5526 5529 5532 5535 5538 5541 5543 5546 5550 5553 5556 5559 5562 5563 5565 5566 5567 5568 5569 5569 5570 5570 5569 5568 5567 5566 5566 5565 5564 5563
5483 5486 5488 5491 5494 5496 5498 5500 5503 5505 5508 5510 5513 5515 5518 5520 5523 5526 5529 5531 5534 5537 5540 5543 5545 5548 5549 5550 5551 5552 5552 5553 5553 5554 5554 5553 5552 5551 5551 5550 5549 5548 5547
5473 5476 5478 5481 5484 5486 5488 5490 5493 5495 5498 5500 5502 5504 5507 5510 5512 5514 5516 5519 5521 5524 5526 5529 5531 5533 5535 5536 5536 5537 5538 5538 5538 5538 5538 5538 5537 5536 5535 5534 5533 5532 5532
5464 5466 5468 5471 5474 5476 5479 5481 5483 5486 5488 5490 5493 5495 5497 5499 5501 5503 5505 5507 5509 5511 5513 5515 5517 5519 5521 5522 5522 5523 5524 5524 5524 5524 5523 5523 5522 5521 5521 5520 5519 5517 5517
5455 5457 5459 5462 5464 5467 5470 5472 5474 5477 5479 5481 5484 5485 5487 5489 5490 5492 5494 5496 5498 5499 5501 5502 5504 5505 5507 5507 5508 5508 5509 5509 5509 5509 5509 5508 5507 5507 5506 5505 5504 5502 5501